AirNav   Free Bose QuietComfort 20
 
 605 users online  

9CL7 Old Aerodrome
Marysville, California, USA

GOING TO MARYSVILLE?


FAA INFORMATION EFFECTIVE 05 DECEMBER 2019

Location

FAA Identifier: 9CL7
Lat/Long: 39-19-29.6060N 121-21-33.8640W
39-19.493433N 121-21.564400W
39.3248906,-121.3594067
(estimated)
Elevation: 700 ft. / 213 m (estimated)
Variation: 16E (1985)
From city: 13 miles S of MARYSVILLE, CA
Time zone: UTC -8 (UTC -7 during Daylight Saving Time)
Zip code: 95901

Airport Operations

Airport use: Private use. Permission required prior to landing
Activation date: 08/1974
Control tower: no
ARTCC: OAKLAND CENTER
FSS: RANCHO MURIETA FLIGHT SERVICE STATION
Attendance: UNATNDD
Wind indicator: yes
Segmented circle: no

Airport Communications

WX ASOS at OVE (16 nm NW): 121.425 (530-533-5792)
WX ASOS at MYV (17 nm SW): 118.475 (530-742-0695)
WX AWOS-3 at GOO (18 nm E): 121.325 (530-273-0029)

Nearby radio navigation aids

VOR radial/distance  VOR name  Freq  Var
MYVr020/16.8MARYSVILLE VOR/DME110.8016E
ILAr046/34.6WILLIAMS VORTAC114.4018E
CICr125/35.9CHICO VOR/DME109.8016E
MCCr346/39.5MC CLELLAN VOR/DME109.2017E

Airport Services

Airframe service: NONE
Powerplant service: NONE

Runway Information

Runway 16/34

Dimensions: 2300 x 100 ft. / 701 x 30 m
Surface: turf
RUNWAY 16  RUNWAY 34
Traffic pattern: leftleft
Obstructions: hills
HILL ON EITHER SIDE OF RWY.
hills

Airport Ownership and Management from official FAA records

Ownership: Privately-owned
Owner: EDWARD M. POPEJOY
P.O. BOX 56
BROWNS VALLEY, CA 95918
Phone (916) 448-3811

Airport Operational Statistics

Aircraft based on the field: 4
Single engine airplanes: 3
Ultralights: 1
    

Additional Remarks

FOR CD CTC NORCAL APCH AT 916-361-6874.

Instrument Procedures

There are no published instrument procedures at 9CL7.

Some nearby airports with instrument procedures:

KBAB - Beale Air Force Base (12 nm S)
KOVE - Oroville Municipal Airport (16 nm NW)
KMYV - Yuba County Airport (17 nm SW)
KGOO - Nevada County Airport (18 nm E)
KLHM - Lincoln Regional Airport/Karl Harder Field (25 nm S)
 
Loc | Ops | Rwys | IFR | FBO | Links
Com | Nav | Svcs | Stats | Notes
Area around 9CL7 (Old Aerodrome)
 
Road maps at: MapQuest Bing Google
 
Aerial photo
No photo
 
Sectional chart

 
Airport distance calculator
Flying to Old Aerodrome? Find the distance to fly.

From to 9CL7

Sunrise and sunset
Times for 06-Dec-2019
 Local
(UTC-8)
 Zulu
(UTC)
Morning civil twilight06:4214:42
Sunrise07:1215:12
Sunset16:4100:41
Evening civil twilight17:1101:11

Current date and time
Zulu (UTC)  06-Dec-2019 09:26:36
Local (UTC-8)  06-Dec-2019 01:26:36
 
METAR
KBAB 
12nm S 
060858Z AUTO 11006KT 10SM HZ OVC055 12/09 A3003 RMK AO2 VIS 2 RWY15 SLP172 T01240090 57004 $
KOVE 
16nm NW 
060853Z AUTO 09004KT 10SM OVC060 14/09 A3006 RMK AO2 SLP179 T01440094 56003
KMYV 
17nm SW 
060853Z AUTO 10005KT 10SM OVC060 12/10 A3005 RMK AO2 SLP180 T01170100 56004
KGOO 
18nm E 
060915Z AUTO 12004KT 10SM BKN021 08/05 A3008 RMK A01
TAF
KBAB 
12nm S 
060300Z 0603/0709 VRB06KT 9999 SKC QNH3006INS BECMG 0608/0609 VRB06KT 9999 BKN050 QNH3000INS BECMG 0620/0621 16012G20KT 9999 BKN050 QNH3002INS BECMG 0701/0702 16020G30KT 9999 BKN020 QNHINS TX17/0621Z TN09/0615Z
NOTAMs
Click for the latest NOTAMs
NOTAMs are issued by the DoD/FAA and will open in a separate window not controlled by AirNav.

 

 
 

Would you like to see your business listed on this page?

 If your business provides an interesting product or service to pilots, flight crews, aircraft, or users of the Old Aerodrome, you should consider listing it here.  To start the listing process, click on the button below
 
Add a business
 

Other Pages about Old Aerodrome

Update a link
 
Copyright © AirNav, LLC. All rights reserved. Privacy Policy  Contact